Location: Vigo di Fassa
(46.4167°N, 11.6667°E)
Time: 15:28:24
(UTC+00:00)

Cosmos 2154 Rocket - Pass Details

Date: 03 March 2021
Orbit: 966 x 996 km, 82.9° (Epoch: 15 April)

Event Time Altitude Azimuth Distance (km) Brightness Sun altitude
Rises 17:33:41 0° 170° (S) 3,657 6.9 -6.2°
Reaches altitude 10° 17:36:14 10° 166° (SSE) 2,710 6.2 -6.6°
Maximum altitude 17:42:13 53° 92° (E) 1,183 4.1 -7.7°
Drops below altitude 10° 17:48:13 10° 17° (NNE) 2,718 6.2 -8.7°
Sets 17:50:47 0° 13° (NNE) 3,668 6.9 -9.1°
